Regional Weather Roundup
Issued by NWS Albany, NY

Home | Current Version | Previous Version | Graphics & Text | Print | Product List | Glossary Off
Versions: 1 2 3 4 5 6 7 8 9 10 11 12 13 14 15 16 17 18 19 20 21 22 23 24 25 26 27 28

000
ASUS41 KALY 080510
RWRALY

NEW YORK STATE HOURLY WEATHER ROUNDUP
NATIONAL WEATHER SERVICE ALBANY NY
1200 AM EST THU DEC 08 2016

NOTE: "FAIR" INDICATES FEW OR NO CLOUDS BELOW 12,000 FEET WITH NO
SIGNIFICANT WEATHER AND/OR NO OBSTRUCTIONS TO VISIBILITY.

NYZ032-033-038>043-046>054-057>066-NYZ062>081-082-084-080600-
EAST


CITY           SKY/WX    TMP DP  RH WIND       PRES   REMARKS
ALBANY         FOG       34  33  96 CALM      29.99F VSB 1/4
GLENS FALLS    PTCLDY    32  28  85 CALM      29.96F FOG
POUGHKEEPSIE   CLOUDY    30  29  96 CALM      29.99F FOG
NEWBURGH       MOCLDY    34  34 100 W6        30.00F WCI  29
MONTGOMERY     CLOUDY    31  30  96 S3        29.98F FOG
WHITE PLAINS   PTCLDY    38  34  85 CALM      29.99F
ISLIP          MOCLDY    36  34  92 CALM      30.01F
NEW YORK CITY  CLOUDY    45  35  68 SW5       30.01F
CENTRAL PARK   PTCLDY    43  33  68 VRB3      30.03F
$$

NYZ005>009-017-018-044>046-055-056-080600-
CENTRAL


CITY           SKY/WX    TMP DP  RH WIND       PRES   REMARKS
FULTON         CLOUDY    36  27  69 S7        29.96S WCI  30
SYRACUSE       CLOUDY    32  28  85 SE3       29.96F
ROME           CLOUDY    29  29 100 E3        29.98F
ELMIRA         CLOUDY    31  27  85 CALM      29.97F
BINGHAMTON     CLOUDY    32  25  75 W9        29.93F WCI  24
MONTICELLO     PTCLDY    30  30 100 CALM      29.96F
$$

NYZ026>034-041>043-087-080600-
NORTH


CITY           SKY/WX    TMP DP  RH WIND       PRES   REMARKS
WATERTOWN      CLOUDY    39  30  70 W15       29.92S WCI  31
FORT DRUM      NOT AVBL
OGDENSBURG     CLOUDY    34  28  76 S6        29.91S WCI  29
MASSENA        CLOUDY    33  24  69 S9        29.91F WCI  25
SARANAC LAKE   CLOUDY    30  25  81 W3        29.85F
PLATTSBURGH    PTCLDY    35  26  69 CALM      29.91F
$$

NYZ001>004-010>016-019>021-085-080600-
WEST


CITY           SKY/WX    TMP DP  RH WIND       PRES   REMARKS
NIAGARA FALLS  PTCLDY    35  25  66 W12       29.93F WCI  27
BUFFALO        FLURRIES  36  25  64 SW15G22   29.93F WCI  27
DUNKIRK        CLOUDY    34  24  67 SW12      29.97F WCI  25
JAMESTOWN      MOCLDY    30  19  64 SW9       29.94S WCI  22
WELLSVILLE     CLEAR     30  20  66 W5        29.93F WCI  25
ROCHESTER      MOCLDY    32  26  78 SW5       29.95F WCI  27
PENN YAN       CLOUDY    35  24  64 S6        29.96S WCI  30
$$

             KEY
       WCI = WIND CHILL INDEX
       VSB = VISIBILITY
       HX  = HEAT INDEX
$$




USA.gov is the U.S. government's official web portal to all federal, state and local government web resources and services.